Username
Password
 
Info Terbaru :
  

Jackpot hanya dapat di beli di awal sebelum periode tersebut berjalan dan jika berhasil maka anda dapat melihat di sisi kiri bawah atau kiri atas akan terdapat notifikasi bahwa jackpot anda berhasil di beli.

Jika anda membeli jackpot di tengah permainan maka pembelian jackpot akan berlaku untuk periode selanjutnya.

Jackpot Winner Ceme

Jackpot dilihat dari gabungan kartu pemain dengan kartu bandar. Bandar harus membeli jackpot sebanyak jumlah player yang sedang duduk. Sebagai contoh bila terdapat 3 pemain duduk bermain, dan bandar memutuskan untuk membeli jackpot Rp 1.000, maka pada periode tersebut bandar akan membeli jackpot sebanyak 3xRp1.000 = Rp3.000.

Jackpot bukanlah suatu keharusan untuk dibeli, namun kami memberikan suatu fitur tambahan untuk member tercinta dari www.dpdomino.com.

Terdapat tiga pilihan harga jackpot yang bisa anda beli yaitu :100,500 dan 1000 rupiah.

Hadiah dari Multi jackpot system www.dpdomino.com

  1. Murni Kecil x 50 harga jackpot yang anda beli.
      (contoH:anda membeli 1000 maka:1000 X 50 = 50.000)
  2. Murni Besar x 50 harga jackpot yang anda beli
      (contoH:anda membeli 1000 maka:1000 X 50 = 50.000)
  3. BALAK x 200 harga jackpot yang anda beli
      (contoH:anda membeli 1000 maka:1000 X 200 = 200.000)
  4. ENAM DEWA x 6666 harga jackpot yang anda beli
      (contoH:anda membeli 1000 maka:1000 X 6666 = 6.666.000)

Demikian adalah penjelasan dari Multi Jackpot www.dpdomino.com terima kasih dan selamat bermain salam hoki dari kami


Jackpot Winner

TOP ENAM DEWA
No. Tanggal Nama Price Win
1 25/09 01:08 TORE16 murni enam 6,666,000
2 25/09 01:08 BEWOK86 murni enam 3,333,000
3 25/09 00:52 DEJANES murni enam 6,666,000
4 25/09 00:22 R0ENALD murni enam 6,666,000
5 25/09 00:22 AJIT55 murni enam 6,666,000
TOP BALAK
No. Tanggal Nama Price Win
1 25/09 01:12 B1ANDA balak 200,000
2 25/09 01:12 ULAILAI balak 200,000
3 25/09 01:12 D_GOYAN9 balak 200,000
4 25/09 01:10 GANYEK balak 200,000
5 25/09 01:10 MODEN_88 balak 100,000
LATEST JACKPOT
No. Tanggal Nama Price Win
1 25/09 01:13 KOESOEMA murni kecil 50,000
2 25/09 01:13 YUKMARHOKY murni kecil 50,000
3 25/09 01:12 SIGOTOM murni kecil 50,000
4 25/09 01:12 KERANGKOPI murni besar 50,000
5 25/09 01:12 WOWO1988 murni besar 50,000
6 25/09 01:12 A27AGNASR10174 murni besar 50,000
7 25/09 01:12 KAREEM17 murni besar 25,000
8 25/09 01:12 KARCE9009 murni besar 50,000
9 25/09 01:12 HOED04 murni besar 50,000
10 25/09 01:12 ADING09 murni besar 50,000
11 25/09 01:12 AGUNG3388 murni kecil 25,000
12 25/09 01:12 DION042 murni besar 50,000
13 25/09 01:12 PJK62 murni besar 25,000
14 25/09 01:12 B1ANDA balak 200,000
15 25/09 01:12 LUWU_RAYA murni kecil 50,000
16 25/09 01:12 SINAR_007 murni kecil 50,000
17 25/09 01:12 ULAILAI balak 200,000
18 25/09 01:12 D_GOYAN9 balak 200,000
19 25/09 01:11 HOED04 murni besar 50,000
20 25/09 01:11 BMWM4 murni kecil 5,000
21 25/09 01:11 PAYTOK murni kecil 50,000
22 25/09 01:11 PAYTOK murni kecil 50,000
23 25/09 01:11 SUMERI509 murni kecil 50,000
24 25/09 01:11 NISAEN27 murni kecil 50,000
25 25/09 01:11 LIFE02 murni kecil 25,000
26 25/09 01:11 CIELAM99 murni kecil 50,000
27 25/09 01:11 ZULFAANI murni kecil 5,000
28 25/09 01:11 RACH3LLE murni kecil 50,000
29 25/09 01:11 MAHESTA87 murni kecil 5,000
30 25/09 01:11 AGENKSR murni kecil 25,000
31 25/09 01:11 PROV1987 murni kecil 50,000
32 25/09 01:11 REYMEIDI murni kecil 5,000
33 25/09 01:10 GANYEK balak 200,000
34 25/09 01:10 MODEN_88 balak 100,000
35 25/09 01:10 MAIN22 murni kecil 25,000
36 25/09 01:10 F9355L2EDX murni kecil 25,000
37 25/09 01:10 TEST99 murni kecil 50,000
38 25/09 01:10 SINAR_007 murni besar 50,000
39 25/09 01:10 D15S03800 murni besar 50,000
40 25/09 01:10 YEFRISONK balak 20,000
41 25/09 01:10 LOVE3RAJA murni besar 50,000
42 25/09 01:10 KARMILA201 murni kecil 50,000
43 25/09 01:10 SAKAITD murni kecil 5,000
44 25/09 01:10 MAYJEND88 murni kecil 25,000
45 25/09 01:09 CMD114729 murni kecil 5,000
46 25/09 01:09 DWBTANZ72 murni besar 50,000
47 25/09 01:09 FOUR_TUNA murni besar 5,000
48 25/09 01:09 TEMPEKTUO1 murni besar 50,000
49 25/09 01:09 AANGFARHAN murni kecil 5,000
50 25/09 01:09 VIYY4 murni kecil 25,000


Situs Poker Online
Dewapoker.com Hadir untuk semua pecinta permainan kartu poker online yang khususnya berada di asia. Dengan system teknology baru dan server kecepatan tinggi akan membuat permainan poker anda lebih seru dan menarik bersama teman2x anda maupun saingan anda. Cukup lakukan login dan langsung bermain tanpa download. Dewapoker.com dengan encrypsi server yang tinggi akan menjamin keamanan data para member.
Terms & Conditions Link Alternatif Video Dewapoker
© Copyright 2018 Dewa Poker. All right reserved.
Dewa.FM